Location: Albuquerque Trailhead
(34.7934°N, 106.3736°W)
Time: 02:16:38
(UTC+00:00)

Lacrosse 5 - Pass Details

Date: 20 June 2021
Orbit: 715 x 724 km, 57.0° (Epoch: 21 July)

Event Time Altitude Azimuth Distance (km) Brightness Sun altitude
Rises 02:46:11 0° 327° (NNW) 3,121 6.6 -5.1°
Reaches altitude 10° 02:48:43 10° 335° (NNW) 2,199 5.4 -5.5°
Maximum altitude 02:53:26 38° 44° (NE) 1,083 2.7 -6.3°
Drops below altitude 10° 02:58:08 10° 112° (ESE) 2,195 3.7 -7.1°
Enters shadow 02:58:33 - 114° (ESE) 2,341 3.9 -7.2°
